FLOCK 4P-11 (44809 NORAD) Tracking and Keplerian Element Data

This shows tracking and keplerian element data for the satellite.

Feedback or suggestion? Click here.




ElementValue
Catalog44809
NameFLOCK 4P-11
Epoch Orbit852
Epoch Day22.3206587
Epoch Year2020
RAAN84.1195
Inclination97.5164
Eccentricity0.0014808
Argument of Perigee56.5483
Mean Anonmoly303.7165
Mean Motion15.19288233
Decay Rate4.94E-06
L11 44809U 19081F 20022.32065870 .00000494 00000-0 26634-4 0 9993
L22 44809 97.5164 84.1195 0014808 56.5483 303.7165 15.19288233 8521

Live tracking and technical data element details for FLOCK 4P-11 (NORAD 44809). FLOCK 4P-11 can be tracked NOW for your location showing map with azimuth and elevation plus other details from your city location.

Track the satellite on the map from your city or location and see movement details for azimuth, elevation, latitude, longitude, range, height, and movement on the map or in text.







IsCatalogInMostPopularTable: catalog: 44809, numindb: 9
Update: records affected: 1



GetName: 44809 FLOCK 4P-11

Hit Count: updated at: Fri, 24 Jan 2020 14:02:56 GMT